timestamp,surface_pressure_avg,surface_temp_avg,battery_voltage,lat,long
2022-06-20 00:09:00+00:00,224.0648,12.9,12.17,47.84626,-54.09684
2022-06-20 00:19:00+00:00,228.6647,12.87,12.17,47.84626,-54.09684
2022-06-20 00:29:00+00:00,233.5047,12.83,12.17,47.84626,-54.09684
2022-06-20 00:39:00+00:00,235.8948,12.81,12.17,47.84626,-54.09684
2022-06-20 00:49:00+00:00,240.123,12.8,12.17,47.84626,-54.09684
2022-06-20 00:59:00+00:00,247.7364,12.8,12.17,47.84626,-54.09684
2022-06-20 01:09:00+00:00,256.0131,12.8,12.17,47.84626,-54.09684
2022-06-20 01:19:00+00:00,262.0981,12.79,12.17,47.84626,-54.09684
2022-06-20 01:29:00+00:00,269.6014,12.8,12.17,47.84626,-54.09684
2022-06-20 01:39:00+00:00,279.4881,12.8,12.17,47.84626,-54.09684
2022-06-20 01:49:00+00:00,290.218,12.83,12.17,47.84626,-54.09684
2022-06-20 01:59:00+00:00,299.6997,12.8,12.17,47.84626,-54.09684
2022-06-20 02:09:00+00:00,307.7147,12.8,12.17,47.84626,-54.09684
2022-06-20 02:19:00+00:00,314.3281,12.79,12.09,47.84626,-54.09684
2022-06-20 02:29:00+00:00,322.0663,12.7,12.09,47.84626,-54.09684
2022-06-20 02:39:00+00:00,326.8697,12.74,12.09,47.84626,-54.09684
2022-06-20 02:49:00+00:00,329.9714,12.77,12.09,47.84626,-54.09684
2022-06-20 02:59:00+00:00,336.4064,12.7,12.09,47.84626,-54.09684
2022-06-20 03:09:00+00:00,343.9796,12.7,12.09,47.84626,-54.09684
2022-06-20 03:19:01+00:00,343.1312,12.7,12.09,47.84626,-54.09684
2022-06-20 03:29:01+00:00,344.87800000000016,12.7,12.09,47.84626,-54.09684
2022-06-20 03:39:01+00:00,354.8397,12.59,12.09,47.84626,-54.09684
2022-06-20 03:49:01+00:00,359.7079,12.57,12.09,47.84626,-54.09684
2022-06-20 03:59:01+00:00,356.5263,12.69,12.09,47.84626,-54.09684
2022-06-20 04:09:01+00:00,358.5312,12.49,12.09,47.84626,-54.09684
2022-06-20 04:19:00+00:00,365.0096,12.35,12.09,47.84626,-54.09684
2022-06-20 04:29:00+00:00,363.4046,12.62,12.09,47.84626,-54.09684
2022-06-20 04:39:00+00:00,360.2779,12.5,12.09,47.84626,-54.09684
2022-06-20 04:49:00+00:00,364.0129,12.18,12.09,47.84626,-54.09684
2022-06-20 04:59:00+00:00,363.698,12.43,12.09,47.84626,-54.09684
2022-06-20 05:09:00+00:00,360.4213,12.6,12.09,47.84626,-54.09684
2022-06-20 05:19:00+00:00,357.8062,11.8,12.09,47.84626,-54.09684
2022-06-20 05:29:00+00:00,352.8813,12.26,12.09,47.84626,-54.09684
2022-06-20 05:39:00+00:00,345.4663,12.87,12.09,47.84626,-54.09684
2022-06-20 05:49:00+00:00,341.2664,12.39,12.09,47.84626,-54.09684
2022-06-20 05:59:00+00:00,339.5813,11.89,12.09,47.84626,-54.09684
2022-06-20 06:09:00+00:00,332.4462,12.51,12.09,47.84626,-54.09684
2022-06-20 06:19:00+00:00,323.9797,12.8,12.01,47.84626,-54.09684
2022-06-20 06:29:00+00:00,318.0797,12.7,12.01,47.84626,-54.09684
2022-06-20 06:39:00+00:00,309.993,12.66,12.01,47.84626,-54.09684
2022-06-20 06:49:00+00:00,298.548,12.85,12.01,47.84626,-54.09684
2022-06-20 06:59:00+00:00,293.1213,12.99,12.01,47.84626,-54.09684
2022-06-20 07:09:00+00:00,286.4747,13.08,12.01,47.84626,-54.09684
2022-06-20 07:19:01+00:00,274.3364,13.17,12.01,47.84626,-54.09684
2022-06-20 07:29:01+00:00,260.7964,13.26,12.01,47.84626,-54.09684
2022-06-20 07:39:01+00:00,256.5098,13.3,12.01,47.84626,-54.09684
2022-06-20 07:49:01+00:00,248.3114,13.3,12.01,47.84626,-54.09684
2022-06-20 07:59:01+00:00,238.1598,13.3,12.01,47.84626,-54.09684
2022-06-20 08:09:01+00:00,232.9131,13.3,12.01,47.84626,-54.09684
2022-06-20 08:19:00+00:00,228.5831,13.29,12.01,47.84626,-54.09684
2022-06-20 08:29:00+00:00,220.7248,13.27,12.01,47.84626,-54.09684
2022-06-20 08:39:00+00:00,215.1965,13.28,12.01,47.84626,-54.09684
2022-06-20 08:49:00+00:00,212.9781,13.26,12.01,47.84626,-54.09684
2022-06-20 08:59:00+00:00,207.2081,13.27,12.01,47.84626,-54.09684
2022-06-20 09:09:00+00:00,203.8682,13.28,12.01,47.84626,-54.09684
2022-06-20 09:19:01+00:00,204.8414,13.26,12.01,47.84626,-54.09684
2022-06-20 09:29:01+00:00,207.1081,13.2,12.01,47.84626,-54.09684
2022-06-20 09:39:01+00:00,204.8631,13.2,12.01,47.84626,-54.09684
2022-06-20 09:49:01+00:00,203.6431,13.2,12.01,47.84626,-54.09684
2022-06-20 09:59:01+00:00,208.0231,13.13,12.01,47.84626,-54.09684
2022-06-20 10:09:01+00:00,210.9581,13.1,12.01,47.84626,-54.09684
2022-06-20 10:19:00+00:00,209.0865,13.1,12.01,47.84626,-54.09684
2022-06-20 10:29:00+00:00,209.1881,13.1,12.01,47.84626,-54.09684
2022-06-20 10:39:00+00:00,211.8981,13.0,12.01,47.84626,-54.09684
2022-06-20 10:49:00+00:00,213.0231,12.9,12.01,47.84626,-54.09684
2022-06-20 10:59:00+00:00,210.5397,12.99,12.01,47.84626,-54.09684
2022-06-20 11:09:00+00:00,212.1781,13.07,12.01,47.84626,-54.09684
2022-06-20 11:19:00+00:00,217.3981,13.0,12.01,47.84626,-54.09684
2022-06-20 11:29:00+00:00,218.4815,12.9,12.01,47.84626,-54.09684
2022-06-20 11:39:00+00:00,214.7131,12.97,12.01,47.84626,-54.09684
2022-06-20 11:49:00+00:00,213.5898,13.08,12.01,47.84626,-54.09684
2022-06-20 11:59:00+00:00,217.9864,13.13,12.01,47.84626,-54.09684
2022-06-20 12:09:00+00:00,220.5031,13.09,12.01,47.84626,-54.09684
2022-06-20 12:19:01+00:00,218.3031,13.0,12.01,47.84626,-54.09684
2022-06-20 12:29:01+00:00,217.8331,13.04,12.01,47.84626,-54.09684
2022-06-20 12:39:01+00:00,222.4064,13.0,12.01,47.84626,-54.09684
2022-06-20 12:49:01+00:00,226.2014,12.98,12.01,47.84626,-54.09684
2022-06-20 12:59:01+00:00,228.3715,12.94,12.01,47.84626,-54.09684
2022-06-20 13:09:01+00:00,232.0681,12.94,12.01,47.84626,-54.09684
2022-06-20 13:19:00+00:00,238.3898,12.9,12.01,47.84626,-54.09684
2022-06-20 13:29:00+00:00,241.7697,13.07,12.01,47.84626,-54.09684
2022-06-20 13:39:00+00:00,245.1331,13.0,12.01,47.84626,-54.09684
2022-06-20 13:49:00+00:00,251.3664,12.9,12.01,47.84626,-54.09684
2022-06-20 13:59:00+00:00,258.9131,12.8,12.01,47.84626,-54.09684
2022-06-20 14:09:00+00:00,264.3098,12.8,12.01,47.84626,-54.09684
2022-06-20 14:19:00+00:00,269.4281,12.7,12.01,47.84626,-54.09684
2022-06-20 14:29:00+00:00,273.5231,12.79,12.01,47.84626,-54.09684
2022-06-20 14:39:00+00:00,281.4447,12.49,12.01,47.84626,-54.09684
2022-06-20 14:49:00+00:00,287.3081,12.1,12.01,47.84626,-54.09684
2022-06-20 14:59:00+00:00,290.6297,12.3,12.01,47.84626,-54.09684
2022-06-20 15:09:00+00:00,292.4047,12.4,12.01,47.84626,-54.09684
2022-06-20 15:19:00+00:00,297.3881,11.47,12.01,47.84626,-54.09684
2022-06-20 15:29:00+00:00,300.1531,11.23,12.01,47.84626,-54.09684
2022-06-20 15:39:00+00:00,300.5047,11.83,12.01,47.84626,-54.09684
2022-06-20 15:49:00+00:00,305.4581,11.88,12.01,47.84626,-54.09684
2022-06-20 15:59:00+00:00,309.058,12.43,12.01,47.84626,-54.09684
2022-06-20 16:09:00+00:00,309.5181,12.62,12.01,47.84626,-54.09684
2022-06-20 16:19:01+00:00,312.9797,12.5,12.01,47.84626,-54.09684
2022-06-20 16:29:01+00:00,320.8364,12.48,12.01,47.84626,-54.09684
2022-06-20 16:39:01+00:00,322.7513,12.63,12.01,47.84626,-54.09684
2022-06-20 16:49:01+00:00,320.3413,12.88,12.01,47.84626,-54.09684
2022-06-20 16:59:01+00:00,324.408,12.3,12.01,47.84626,-54.09684
2022-06-20 17:09:01+00:00,323.7913,12.39,12.01,47.84626,-54.09684
2022-06-20 17:19:00+00:00,317.3713,12.5,12.01,47.84626,-54.09684
2022-06-20 17:29:00+00:00,319.0563,12.1,12.01,47.84626,-54.09684
2022-06-20 17:39:00+00:00,321.9813,12.04,12.01,47.84626,-54.09684
2022-06-20 17:49:00+00:00,319.3381,12.37,12.01,47.84626,-54.09684
2022-06-20 17:59:00+00:00,316.9514,12.6,12.01,47.84626,-54.09684
2022-06-20 18:09:00+00:00,319.7147,12.6,12.01,47.84626,-54.09684
2022-06-20 18:19:00+00:00,314.563,12.73,12.01,47.84626,-54.09684
2022-06-20 18:29:00+00:00,305.4163,12.7,12.01,47.84626,-54.09684
2022-06-20 18:39:00+00:00,302.398,12.52,12.01,47.84626,-54.09684
2022-06-20 18:49:00+00:00,299.613,12.5,12.01,47.84626,-54.09684
2022-06-20 18:59:00+00:00,293.3214,12.69,12.01,47.84626,-54.09684
2022-06-20 19:09:00+00:00,282.818,12.77,12.01,47.84626,-54.09684
2022-06-20 19:19:00+00:00,277.1248,12.8,12.01,47.84626,-54.09684
2022-06-20 19:29:00+00:00,272.0514,12.95,12.01,47.84626,-54.09684
2022-06-20 19:39:00+00:00,264.1097,13.1,12.01,47.84626,-54.09684
2022-06-20 19:49:00+00:00,259.4131,13.3,12.01,47.84626,-54.09684
2022-06-20 19:59:00+00:00,255.4581,13.4,12.01,47.84626,-54.09684
2022-06-20 20:09:00+00:00,246.0247,13.49,12.01,47.84626,-54.09684
2022-06-20 20:19:00+00:00,235.3014,13.53,12.01,47.84626,-54.09684
2022-06-20 20:29:00+00:00,228.7847,13.6,12.01,47.84626,-54.09684
2022-06-20 20:39:00+00:00,223.2531,13.79,12.01,47.84626,-54.09684
2022-06-20 20:49:00+00:00,217.0514,13.8,12.01,47.84626,-54.09684
2022-06-20 20:59:00+00:00,214.5248,13.8,12.01,47.84626,-54.09684
2022-06-20 21:09:00+00:00,211.2181,13.8,12.01,47.84626,-54.09684
2022-06-20 21:19:00+00:00,204.8115,13.8,12.01,47.84626,-54.09684
2022-06-20 21:29:00+00:00,199.5914,13.8,12.01,47.84626,-54.09684
2022-06-20 21:39:00+00:00,199.0798,13.7,12.01,47.84626,-54.09684
2022-06-20 21:49:00+00:00,197.0831,13.7,12.01,47.84626,-54.09684
2022-06-20 21:59:00+00:00,194.8198,13.7,12.01,47.84626,-54.09684
2022-06-20 22:09:00+00:00,196.4681,13.6,12.01,47.84626,-54.09684
2022-06-20 22:19:00+00:00,198.8431,13.4,12.01,47.84626,-54.09684
2022-06-20 22:29:00+00:00,195.7598,13.39,12.01,47.84626,-54.09684
2022-06-20 22:39:00+00:00,197.0498,13.4,12.01,47.84626,-54.09684
2022-06-20 22:49:00+00:00,200.8581,13.4,12.01,47.84626,-54.09684
2022-06-20 22:59:00+00:00,200.0464,13.4,12.01,47.84626,-54.09684
2022-06-20 23:09:00+00:00,203.7848,13.4,12.01,47.84626,-54.09684
2022-06-20 23:19:00+00:00,209.3698,13.2,12.01,47.84626,-54.09684
2022-06-20 23:29:00+00:00,207.1698,13.2,12.01,47.84626,-54.09684
2022-06-20 23:39:00+00:00,203.5131,13.28,12.01,47.84626,-54.09684
2022-06-20 23:49:00+00:00,210.0431,13.26,12.01,47.84626,-54.09684
2022-06-20 23:59:00+00:00,211.9281,13.26,12.01,47.84626,-54.09684
